Weather in Arsinskiy

Russia / Chelyabinsk Oblast     53°45′04″N   59°53′12″E
temp.,
°C
wind,
m/s
gust,
m/s
humid.,
%
clouds,
%
prec.,
mm/h
press.,
hPa
HPBL,
m
20 june, sun
sun2023:00+15w51475100 0.1 1017402
02:00+16w7158050 0.0 1014448
05:00+15w7158820 0.0 1013438
08:00+20wnw713725 0.0 1012832
11:00+23nw9136010 0.0 10131527
14:00+24nw1014470 0.0 10132037
17:00+23n913400 0.0 10142137
20:00+17n713480 0.0 1016772
21 june, mon
mon2123:00+14nnw714430 0.0 1018633
02:00+12nnw512460 0.0 1020358
05:00+9nw410580 0.0 1021200
08:00+14nnw610464 0.0 10221025
11:00+17n79370 0.0 10231489
14:00+20n69315 0.0 10221812
17:00+20n57319 0.0 10221863
20:00+18n225092 0.0 102115
22 june, tue
tue2223:00+14sse225415 0.0 102217
02:00+15sw2452100 0.0 102187
05:00+14w477112 0.0 1020123
08:00+19wnw45675 0.0 1019284
11:00+24nw565720 0.1 10181160
14:00+27nnw5842100 0.0 10172534
17:00+27nnw69475 0.0 10171535
20:00+20wnw61278100 0.3 1017279
23 june, wed
wed2323:00+19w5118010 0.3 1017210
02:00+18nw41181100 0.0 1016212
05:00+17nw48850 0.0 1016137
08:00+19nne578190 0.0 1017458
11:00+21ne456868 0.0 10171026
14:00+19ene767295 0.0 1018562
17:00+13e459157 1.2 1020305
20:00+14ene3484100 0.1 1020388
24 june, thu
thu2423:00+12e348672 0.1 1020284
02:00+12se2384100 0.0 1020249
05:00+12ese2479100 0.0 1019230
08:00+12e3579100 0.1 1021295
11:00+12e237596 0.1 1022330
14:00+19e344514 0.0 10211910
17:00+20ene344011 0.0 10202010
20:00+18ene35570 0.0 1021142